Weather in Vyngapurovskiy

Russia / Yamalo-Nenets Autonomous Okrug     62°58′59″N   76°59′22″E
temp.,
°C
wind,
m/s
gust,
m/s
humid.,
%
clouds,
%
prec.,
mm/h
press.,
hPa
HPBL,
m
27 february, sat
sat2723:00−27wsw459891 0.1 1026107
02:00−25wsw5798100 0.1 1025144
05:00−24wsw469898 0.2 1025137
08:00−23w4698100 0.1 1024134
11:00−20w4694100 0.2 1024365
14:00−19wnw5692100 0.1 1025514
17:00−21wnw3498100 0.2 102547
20:00−23wnw2399100 0.1 102625
28 february, sun
sun2823:00−25w2310098 0.1 102621
02:00−25w3499100 0.1 102636
05:00−26w3398100 0.1 102723
08:00−27wsw339798 0.0 102829
11:00−24sw349290 0.1 1027217
14:00−22sw338963 0.0 1028275
17:00−26ssw229750 0.0 102719
20:00−28sse23970 0.0 102719
1 march, mon
mon123:00−28sse33990 0.0 102719
02:00−28sse331000 0.0 102619
05:00−29se331000 0.0 102619
08:00−29se34980 0.0 102624
11:00−23se34916 0.0 1025217
14:00−21se448922 0.0 1024239
17:00−25se349510 0.0 102320
20:00−27se45950 0.0 102324
2 march, tue
tue223:00−27sse45973 0.0 102232
02:00−28s559522 0.0 102243
05:00−29s459516 0.0 102239
08:00−28sse58940 0.0 1021101
11:00−23sse68880 0.0 1021254
14:00−21sse69883 0.0 1020266
17:00−23sse57922 0.0 102083
20:00−25sse7109124 0.0 1019128
3 march, wed
wed323:00−26sse6109619 0.0 1019126
02:00−27sse679857 0.0 101986
05:00−27sse699946 0.0 1019103
08:00−27sse6119756 0.0 1018175
11:00−22sse8129556 0.0 1018281
14:00−19sse8119385 0.0 1018368
17:00−20sse7129793 0.0 1017220
20:00−22sse8159696 0.0 1017261